    Observer details:
    203 GiaGa Observatory.  Observers S. Foglia, G. Galli.  Measurer G. Galli.
        0.28-m f/6.8 Schmidt-Cassegrain + CCD.
    204 Schiaparelli Observatory.  Observer L. Buzzi.  0.60-m f/4.64 reflector
        + CCD.
    300 Bisei Spaceguard Center--BATTeRS.  Observers S. Urakawa, A. Asami.  1.0-m
        f/3.0 reflector + CCD.
    474 Mount John Observatory, Lake Tekapo.  Observers A. C. Gilmore,
        P. M. Kilmartin.  Measurer P. M. Kilmartin.  1.0-m f/7.7 reflector + CCD.
    585 Kyiv comet station.  Observer A. Baransky.  0.7-m f/4 reflector + CCD.
    587 Sormano.  Observers A. Fumagalli, P. Sicoli, A. Testa.  Measurer P. Sicoli.
        0.5-m f/6.8 reflector + CCD.
    703 Catalina Sky Survey.  Observer J. A. Johnson.  Measurers E. J. Christensen,
        D. C. Fuls, A. R. Gibbs, A. D. Grauer, J. A. Johnson, R. A. Kowalski,
        S. M. Larson, G. J. Leonard, R. G. Matheny, R. L. Seaman, F. C. Shelly.
        0.68-m Schmidt + CCD.
    718 Tooele.  Observer P. Wiggins.  0.35-m f/5.5 Schmidt-Cassegrain + CCD.
    926 Tenagra II Observatory.  Observers M. Schwartz, P. R. Holvorcem.  Measurer
        M. Schwartz.  0.41-m f/3.75 astrograph + CCD, 0.81-m f/7 Ritchey-Chretien
        + CCD.
    958 Observatoire de Dax.  Observers P. Dupouy, J. B. de Vanssay.  Measurer
        P. Dupouy.  0.43-m f/2.7 reflector + CCD.
    C77 Bernezzo Observatory.  Observer A. Mantero.  0.25-m f/4 reflector + CCD.
    E23 Arcadia.  Observer A. Hidas.  0.35-m f/7.0 Schmidt-Cassegrain + CCD.
    F51 Pan-STARRS 1, Haleakala.  Observers B. Gibson, T. Goggia, N. Primak,
        A. Schultz, M. Willman.  Measurer P. Veres.  1.8-m Ritchey-Chretien + CCD.
    H15 ISON-NM Observatory, Mayhill.  Observer L. Elenin.  0.4-m f/3 reflector
        + CCD.
    H36 Sandlot Observatory, Scranton.  Observer G. Hug.  0.56-m reflector + CCD.
    I52 Steward Observatory, Mt. Lemmon Station.  Observer R. A. Kowalski.
        Measurers E. J. Christensen, D. C. Fuls, A. R. Gibbs, A. D. Grauer,
        J. A. Johnson, R. A. Kowalski, S. M. Larson, G. J. Leonard, R. G. Matheny,
        R. L. Seaman, F. C. Shelly.  1.0-m reflector + CCD.
    I93 St Pardon de Conques.  Observer F. Losse.  0.40-m f/3.7 reflector + CCD.
    J95 Great Shefford.  Observer P. Birtwhistle.  0.40-m f/6.0 Schmidt-Cassegrain
        + CCD.
    K63 G. Pascoli Observatory, Castelvecchio Pascoli.  Observer R. Bacci.  0.30-m
        f/10 Schmidt-Cassegrain + CCD.
    L04 ROASTERR-1 Observatory, Cluj-Napoca.  Observer L. Hudin.  0.3-m f/5.0
        reflector + CCD.
    Z99 Clixby Observatory, Cleethorpes.  Observer A. Mickleburgh.  0.36-m f/8
        Schmidt-Cassegrain + CCD.
    
    Orbital elements:
    2016 JW5                                            PHA, Earth MOID = 0.0340 AU
    Epoch 2016 July 31.0 TT = JDT 2457600.5                 MPC
    M  29.43329              (2000.0)            P               Q
    n   0.22186991     Peri.  351.48542     -0.96448185     -0.26408009
    a   2.7023221      Node   173.19324     +0.24525394     -0.90374700
    e   0.6825805      Incl.    2.92047     +0.09810844     -0.33690216
    P   4.44           H   21.9           G   0.15           U   5
    Residuals in seconds of arc
    160426 F51  0.1+  0.0     160504 H36  0.3-  0.2-    160504 L04  0.3-  0.1-
    160426 F51  0.2+  0.0     160504 I52  0.0   0.1+    160504 L04  0.3-  0.3-
    160426 F51  0.2-  0.1-    160504 H36  0.4+  0.5-    160504 L04  0.4-  0.0
    160503 703  1.1-  0.3+    160504 I52  0.1+  0.1-    160505 I93  0.1-  0.0
    160503 703  0.1-  0.2+    160504 I52  0.1+  0.2+    160505 L04  0.5-  0.4-
    160503 703  0.3+  0.2-    160504 I52  0.0   0.2+    160505 I93  0.0   0.1-
    160503 474  0.3+  0.4-    160504 I52  0.1+  0.2+    160505 I93  0.2+  0.1-
    160503 474  0.4-  0.9-    160504 I52  0.2-  0.1+    160505 204  0.1-  0.3+
    160503 474  0.7+  1.1+    160504 I52  0.0   0.1-    160505 203  0.1+  0.0
    160503 474  0.0   0.1-    160504 I52  0.1+  0.0     160505 204  0.2-  0.2+
    160503 474  0.5+  0.6-    160504 926  0.4-  0.1-    160505 204  0.5+  0.0
    160503 E23  0.0   0.2+    160504 926  0.2+  0.2+    160505 203  0.3+  0.1-
    160503 E23  0.3-  0.2-    160504 926  0.1+  0.3+    160505 585  0.3-  0.3+
    160503 E23  0.4+  0.0     160504 718  0.3+  0.2-    160505 585  0.2-  0.1+
    160503 E23  0.1+  0.1-    160504 718  0.5+  0.0     160505 585  0.0   0.0
    160503 C77  0.3-  0.2-    160504 718  0.8+  0.8-    160505 585  0.1-  0.0
    160503 C77  0.6-  0.3+    160504 718  0.9+  0.3+    160505 585  0.0   0.0
    160503 C77  0.4+  0.8+    160504 926  0.2+  0.1+    160505 585  0.1-  0.1+
    160503 Z99  0.2+  0.0     160504 926  0.2-  0.0     160505 I52  0.1+  0.0
    160503 Z99  0.6-  0.2+    160504 926  0.2-  0.0     160505 I52  0.3+  0.1+
    160503 958  0.0   1.1-    160504 300  0.1+  0.4+    160505 I52  0.2+  0.1-
    160503 Z99  0.2+  0.2-    160504 300  0.4+  0.0     160505 I52  0.1-  0.3+
    160504 958  0.2-  0.8-    160504 300  0.1-  1.1+    160505 H36  0.1-  0.5-
    160504 958  0.4-  0.7-    160504 300  0.2-  0.4+    160505 H36  0.0   0.2-
    160504 J95  0.1+  0.1+    160504 587  0.0   0.9+    160505 926  0.1-  0.1+
    160504 J95  0.0   0.0     160504 587  0.0   0.0     160505 H36  0.0   0.2-
    160504 J95  0.1+  0.2+    160504 587  0.2-  0.7+    160505 H36  0.1-  0.3-
    160504 H15  0.2-  0.8-    160504 K63  0.3+  0.8+    160505 926  0.2-  0.1+
    160504 H15  0.0   0.0     160504 K63  0.2+  1.1-    160505 H36  0.1-  0.3-
    160504 H15  0.6+  0.4+    160504 K63  0.5-  0.4-    160505 926  0.3+  0.1-
    160504 H36  0.0   0.2-    160504 K63  0.2-  0.0
    
    Ephemeris:
    2016 JW5                 a,e,i = 2.70, 0.68, 3                   q = 0.8578
    Date    TT    R. A. (2000) Decl.     Delta      r     Elong.  Phase     V
    2016 04 05    03 26 28.4 +23 39 12   0.1505  0.8905    40.0   133.7    23.6
    ...
    2016 04 20    00 57 22.0 +54 35 11   0.04287 0.9745    44.4   133.8    21.1
    ...
    2016 04 28    17 30 31.1 +23 26 34   0.05218 1.0343   120.6    56.9    17.6
    ...
    2016 05 04    16 45 53.5 +05 59 06   0.09291 1.0840   142.9    34.1    18.3
    2016 05 05    16 42 08.6 +04 27 01   0.1004  1.0925   145.2    31.8    18.5
    2016 05 06    16 38 52.1 +03 07 00   0.1079  1.1012   147.3    29.7    18.6
    ...
    2016 05 12    16 25 15.5 -02 15 49   0.1553  1.1547   156.8    20.2    19.2
    ...
    2016 05 20    16 15 01.8 -06 06 53   0.2236  1.2290   164.7    12.6    19.8
    ...
    2016 06 04    16 05 57.2 -10 01 16   0.3695  1.3734   163.9    11.8    21.1
    
    A. U. Tomatic                (C) Copyright 2016 MPC           M.P.E.C. 2016-J52
    

    Read MPEC 2016-J51 Read MPEC 2016-J53


    MPEC number:

    Enter an MPEC number in one of the following forms:

    • 1997-B01 (the full form)
    • J97B01 (the packed version of the full form)
    • B01 (the abbreviated form)